Home > Weather > Tübingen > Past weeks

Flag for Germany Weather for the Past 2 Weeks in Tübingen, Baden-Württemberg, Germany

Now
48 °F

Broken clouds.


Feels Like: 42 °F
Forecast: 38 / 48 °F
Wind: 15 mph from Southwest

Location: Stuttgart-Echterdingen

Current Time: Feb 8, 2016 at 10:17:02 AM

Latest Report: Feb 8, 2016 at 9:20 AM


Visibility: N/A

Pressure: 29.65 "Hg

Humidity: 62%

Dew point: 36 °F

Location of TübingenLocation

Historic Weather in Tübingen — Graph

°F

Tübingen Temperature Yesterday

Maximum temperature yesterday: 46 °F (at 1:20 PM)
Minimum temperature yesterday: 34 °F (at 4:50 AM)
Average temperature yesterday: 40 °F

High & Low Weather Summary for the Past Weeks

 TemperatureHumidityPressure
High61 °F (Jan 26, 2:20 PM)100% (Jan 24, 9:20 AM)30.51 "Hg (Jan 24, 9:20 AM)
Low30 °F (Jan 24, 9:20 AM)44% (Feb 6, 1:20 PM)29.62 "Hg (Feb 7, 8:50 AM)
Average44 °F81%30.16 "Hg
* Reported Jan 24 9:20 AM — Feb 8 9:20 AM, Tübingen, Weather by CustomWeather, © 2016

Note: Actual official high and low records may vary slightly from our data, if they occured in-between our weather recording intervals... More about our weather records

Advertising

Tübingen Weather History for the Previous 24 Hours

 ConditionsComfort  
Time TempWeatherWind HumidityBarometerVisibility
9:20 AM
Mon, Feb 8
48 °FBroken clouds.15 mph62%29.65 "HgN/A
8:50 AM46 °FBroken clouds.16 mph66%29.68 "HgN/A
8:20 AM45 °FBroken clouds.18 mph66%29.68 "HgN/A
7:50 AM45 °FScattered clouds.14 mph61%29.68 "HgN/A
7:20 AM45 °FLight rain. Partly cloudy.13 mph57%29.68 "HgN/A
6:50 AM43 °FLight rain. Partly cloudy.8 mph66%29.71 "HgN/A
6:20 AM43 °FPartly cloudy.7 mph61%29.71 "HgN/A
5:50 AM41 °FClear.8 mph70%29.74 "Hg10 mi
5:20 AM41 °FClear.3 mph70%29.74 "Hg10 mi
4:20 AM41 °FClear.9 mph70%29.77 "Hg10 mi
3:50 AM41 °FClear.9 mph70%29.77 "Hg10 mi
2:50 AM41 °FClear.7 mph70%29.80 "Hg10 mi
2:20 AM41 °FClear.7 mph70%29.80 "Hg10 mi
1:50 AM41 °FClear.10 mph76%29.80 "Hg10 mi
1:20 AM41 °FClear.9 mph76%29.83 "Hg10 mi
12:50 AM41 °FClear.6 mph76%29.83 "Hg10 mi
12:20 AM41 °FClear.6 mph76%29.83 "Hg10 mi
11:20 PM
Sun, Feb 7
41 °FPassing clouds.5 mph76%29.86 "HgN/A
10:50 PM41 °FClear.8 mph76%29.86 "Hg10 mi
10:20 PM41 °FPassing clouds.7 mph76%29.86 "HgN/A
9:50 PM43 °FClear.12 mph71%29.86 "Hg10 mi
9:20 PM43 °FClear.12 mph76%29.83 "Hg10 mi
8:50 PM43 °FPassing clouds.12 mph76%29.83 "HgN/A
8:20 PM43 °FPassing clouds.13 mph76%29.83 "HgN/A
7:50 PM43 °FPassing clouds.10 mph76%29.83 "HgN/A
7:20 PM43 °FPassing clouds.10 mph76%29.83 "HgN/A
6:50 PM43 °FClear.7 mph81%29.80 "Hg10 mi
6:20 PM43 °FPassing clouds.7 mph81%29.80 "HgN/A
5:50 PM45 °FPassing clouds.8 mph76%29.80 "HgN/A
5:20 PM45 °FBroken clouds.7 mph71%29.77 "HgN/A
4:20 PM45 °FLight rain. Broken clouds.9 mph71%29.77 "HgN/A
3:50 PM46 °FLight rain. Broken clouds.8 mph71%29.74 "HgN/A
3:20 PM46 °FBroken clouds.14 mph71%29.74 "HgN/A
2:50 PM46 °FPartly sunny.16 mph71%29.71 "HgN/A
2:20 PM46 °FBroken clouds.3 mph76%29.71 "HgN/A
1:50 PM46 °FBroken clouds.2 mph71%29.68 "HgN/A
1:20 PM46 °FPartly sunny.2 mph71%29.68 "HgN/A
12:50 PM45 °FPartly sunny.1 mph76%29.65 "HgN/A
12:20 PM43 °FPassing clouds.3 mph76%29.65 "HgN/A
11:50 AM41 °FSunny.1 mph81%29.62 "Hg10 mi
11:20 AM39 °FSunny.1 mph87%29.62 "Hg10 mi
10:50 AM39 °FSunny.1 mph87%29.62 "Hg10 mi
10:20 AM37 °FSunny.3 mph93%29.62 "Hg10 mi
Weather by CustomWeather, © 2016

See weather overviewHow to use our weather pages